This demonstration page uses our WeatherBlox Daily Observations layout. Learn more.

Left ArrowRight Arrow

Hourly Observations for April 30, 2019

Temp ( °F °C ) Dew Point ( °F °C ) Humidity (%) Winds ( mph kmh ) Pressure ( in mb ) Visibility ( mi km ) Precip ( " mm )
12:52 am 00:52 Cloudy with Light Rain 51 10.6 37 2.8 59 59 N 10 17 30.15 1021 10 16 0.00 0.03
1:52 am 01:52 Cloudy with Light Rain 49 9.4 39 3.9 69 69 N 13 20 30.14 1021 10 16 0.01 0.25
2:52 am 02:52 Cloudy 49 9.4 39 3.9 69 69 N 15 24 30.11 1020 10 16 0.00 0.03
3:52 am 03:52 Cloudy 49 9.4 39 3.9 69 69 N 12 19 30.11 1020 10 16 0.00 0.00
4:52 am 04:52 Cloudy 48 8.9 38 3.3 68 68 N 10 17 30.11 1020 10 16 0.00 0.00
5:52 am 05:52 Cloudy 48 8.9 38 3.3 68 68 N 10 17 30.10 1019 10 16 0.00 0.03
6:52 am 06:52 Cloudy 48 8.9 39 3.9 71 71 NNE 8 13 30.09 1019 10 16 0.00 0.00
7:52 am 07:52 Cloudy 48 8.9 40 4.4 74 74 N 5 7 30.10 1019 10 16 0.00 0.03
8:52 am 08:52 Cloudy 49 9.4 41 5 74 74 N 9 15 30.08 1019 10 16 0.00 0.03
9:52 am 09:52 Cloudy 50 10 42 5.6 74 74 N 12 19 30.09 1019 10 16 0.00 0.00
10:31 am 10:31 Cloudy with Light Rain 49 9.4 43 6.1 80 80 N 10 17 30.08 1019 3 5 0.00 0.03
10:41 am 10:41 Cloudy with Haze 50 10 44 6.7 80 80 NNE 7 11 30.07 1018 5 8 0.00 0.03
10:52 am 10:52 Cloudy with Drizzle 50 10 44 6.7 80 80 NNE 7 11 30.05 1018 6 10 0.00 0.03
11:07 am 11:07 Cloudy 50 10 44 6.7 80 80 NE 8 13 30.05 1018 9 14 0.00 0.03
11:52 am 11:52 Cloudy 52 11.1 44 6.7 75 75 ENE 9 15 30.01 1016 10 16 0.00 0.03
12:02 pm 12:02 Cloudy 52 11.1 45 7.2 77 77 ENE 9 15 30.02 1016 10 16 0.00 0.00
12:52 pm 12:52 Cloudy 52 11.1 45 7.2 77 77 NE 10 17 30.02 1017 10 16 0.00 0.00
1:52 pm 13:52 Cloudy with Drizzle 52 11.1 47 8.3 83 83 N 8 13 29.99 1016 3 5 0.00 0.03
2:11 pm 14:11 Cloudy with Light Rain 52 11.1 48 8.9 86 86 N 8 13 30.00 1016 2 3 0.00 0.03
2:16 pm 14:16 Cloudy with Light Rain 52 11.1 48 8.9 86 86 N 8 13 30.00 1016 2 2 0.01 0.25
2:45 pm 14:45 Cloudy with Rain 52 11.1 48 8.9 86 86 N 12 19 29.99 1015 1 2 0.03 0.76
2:52 pm 14:52 Cloudy with Light Rain 52 11.1 48 8.9 86 86 N 10 17 29.98 1015 2 2 0.04 1.02
3:02 pm 15:02 Cloudy with Light Rain 52 11.1 48 8.9 86 86 N 8 13 29.99 1015 2 3 0.00 0.03
3:25 pm 15:25 Cloudy with Light Rain 52 11.1 49 9.4 89 89 NNE 9 15 29.98 1015 2 3 0.01 0.25
3:50 pm 15:50 Cloudy with Light Rain 52 11 48 9 88 88 NNE 10 17 29.96 1014 3 5 0.02 0.51
3:52 pm 15:52 Cloudy with Light Rain 52 11.1 49 9.4 89 89 NNE 13 20 29.95 1014 3 5 0.02 0.51
4:33 pm 16:33 Cloudy with Haze 53 11.7 48 8.9 83 83 ENE 13 20 29.89 1012 6 10 0.00 0.03
4:52 pm 16:52 Cloudy with Light Rain 53 11.7 48 8.9 83 83 NNE 12 19 29.93 1014 6 10 0.00 0.03
5:42 pm 17:42 Cloudy with Light Rain 52 11.1 48 8.9 86 86 NE 9 15 29.94 1014 5 8 0.01 0.25
5:52 pm 17:52 Cloudy with Light Rain 52 11.1 48 8.9 86 86 ENE 10 17 29.93 1014 5 8 0.01 0.25
6:27 pm 18:27 Cloudy with Light Rain 52 11.1 48 8.9 86 86 NE 6 9 29.94 1014 5 8 0.01 0.25
6:52 pm 18:52 Cloudy with Light Rain 52 11.1 47 8.3 83 83 NE 10 17 29.90 1013 7 11 0.02 0.51
7:45 pm 19:45 Cloudy 52 11.1 47 8.3 83 83 N 9 15 29.90 1012 7 11 0.00 0.03
7:52 pm 19:52 Cloudy 52 11.1 47 8.3 83 83 N 10 17 29.88 1012 7 11 0.00 0.03
8:52 pm 20:52 Cloudy 52 11.1 47 8.3 83 83 ENE 9 15 29.87 1012 7 11 0.00 0.00
9:27 pm 21:27 Cloudy 51 10.6 46 7.8 83 83 NNE 12 19 29.88 1012 7 11 0.00 0.00
9:52 pm 21:52 Cloudy with Mist and Fog 50 10 46 7.8 86 86 NNE 12 19 29.88 1012 6 10 0.00 0.03
10:52 pm 22:52 Cloudy with Mist and Fog 49 9.4 44 6.7 83 83 NNE 9 15 29.91 1013 6 10 0.00 0.00
11:41 pm 23:41 Cloudy with Light Rain 48 8.9 44 6.7 86 86 N 14 22 29.93 1013 3 4 0.00 0.03
11:52 pm 23:52 Cloudy with Light Rain 48 8.9 44 6.7 86 86 N 13 20 29.92 1013 3 4 0.00 0.03

Powered by AerisWeather